SCP
0 0 0 0 0 0 0 0 0 0 0 0 0 0 0 0 0 0 0 0 0 0 0 0 0 0 0 0 0 0 0 0 0 0 0 0 0 0 0 0 0 0 0
0 0 0 0 0 0 0 0 0 0 0 0 0 0 0 0 0 0 0 0 0 0 0 0 0 0 0 0 0 0 0 0 0 0 0 0 0 0 0 0 0 0 0
0 0 0 0 0 0 0 0 0 0 0 0 0 0 0 0 0 0 0 0 0 0 0 0 0 0 0 0 0 0 0 0 0 0 0 0 0 0 0 0 0 0 0
0 0 0 0 0 0 0 0 0 0 0 0 0 0 0 0 0 0 0 0 0 0 0 0 0 0 0 0 0 0 0 0 0 0 0 0 0 0 0 0 0 0 0
0 0 0 0 0 0 0 0 0 0 0 0 0 0 0 0 0 0 0 0 0 0 0 0 0 0 0 0 0 0 0 0 0 0 0 0 0 0 0 0 0 0 0
0 0 0 0 0 0 0 0 0 0 0 0 0 0 0 0 0 0 0 0 0 0 0 0 0 0 0 0 0 0 0 0 0 0 0 0 0 0 0 0 0 0 0
0 0 0 0 0 0 0 0 0 0 0 0 0 0 0 0 0 0 0 0 0 0 0 0 0 0 0 0 0 0 0 0 0 0 0 0 0 0 0 0 0 0 0
0 0 0 0 0 0 0 0 0 0 0 0 0 0 0 0 0 0 0 0 0 0 0 0 0 0 0 0 0 0 0 0 0 0 0 0 0 0 0 0 0 0 0
0 0 0 0 0 0 0 0 0 0 0 0 0 0 0 0 0 0 0 0 0 0 0 0 0 0 0 0 0 0 0 0 0 0 0 0 0 0 0 0 0 0 0
0 0 0 0 0 0 0 0 0 0 0 0 0 0 0 0 0 0 0 0 0 0 0 0 -0 -0 -0 0 0 0 0 0 0 0 0 0 0 0 0 0 0 0 0
0 0 0 0 0 0 0 0 0 0 0 0 0 0 0 0 0 0 0 0 0 0 0 0 -0 -0 -0 -0 0 0 0 0 0 0 0 0 0 0 0 0 0 0 0
0 0 0 0 0 0 0 0 0 0 0 0 0 0 0 0 0 0 0 0 0 0 0 0 -0 -0 -0 -0 -0 0 0 0 0 0 0 0 0 0 0 0 0 0 0
0 0 0 0 0 0 0 0 0 0 0 0 0 0 0 0 0 0 0 0 0 0 0 0 0 0 -0 -0 -0 0 0 0 0 0 0 0 0 0 0 0 0 0 0
0 0 0 0 0 0 0 0 0 0 0 0 0 0 0 0 0 0 0 0 0 0 0 0 0 0 0 0 0 0 0 0 0 0 0 0 0 0 0 0 0 0 0
0 0 0 0 0 0 0 0 0 0 0 0 0 0 0 0 0 0 0 0 0 0 0 0 0 0 0 0 0 0 0 0 0 0 0 0 0 0 0 0 0 0 0
0 0 0 0 0 0 0 0 0 0 0 0 0 0 0 0 0 0 0 0 0 0 0 0 0 0 0 0 0 0 0 0 0 0 0 0 0 0 0 0 0 0 0
0 0 0 0 0 0 0 0 0 0 0 0 0 0 0 0 0 0 0 0 0 0 0 0 0 0 0 0 0 0 0 0 0 0 0 0 0 0 0 0 0 0 0
0 0 0 0 0 0 0 0 0 0 0 0 0 0 0 0 0 0 0 0 0 0 0 0 0 0 0 0 0 0 0 0 0 0 0 0 0 0 0 0 0 0 0
0 0 0 0 0 0 0 0 0 0 0 0 0 0 0 0 0 0 0 0 0 0 0 0 0 0 0 0 0 0 0 0 0 0 0 0 0 0 0 0 0 0 0
0 0 0 0 0 0 0 0 0 0 0 0 0 0 0 0 0 0 0 0 0 0 0 0 0 0 0 0 0 0 0 0 0 0 0 0 0 0 0 0 0 0 0
0 0 0 0 0 0 0 0 0 0 0 0 0 0 0 0 0 0 0 0 0 0 0 0 0 0 0 0 0 0 0 0 0 0 0 0 0 0 0 0 0 0 0
0 0 0 0 0 0 0 0 0 0 0 0 0 0 0 0 0 0 0 0 0 0 0 0 0 0 0 0 0 0 0 0 0 0 0 0 0 0 0 0 0 0 0
0 0 0 0 0 0 0 0 0 0 0 0 0 0 0 0 0 0 0 0 0 0 0 0 0 0 0 0 0 0 0 0 0 0 0 0 0 0 0 0 0 0 0
0 0 0 0 0 0 0 0 0 0 0 0 0 0 0 0 0 0 0 0 0 0 0 0 0 0 0 0 0 0 0 0 0 0 0 0 0 0 0 0 0 0 0
0 0 0 0 0 0 0 0 0 0 0 0 0 0 0 0 0 0 0 0 0 0 0 0 0 0 0 0 0 0 0 0 0 0 0 0 0 0 0 0 0 0 0
0 0 0 0 0 0 0 0 0 0 0 0 0 0 0 0 0 0 0 0 0 0 0 0 0 0 0 0 0 0 0 0 0 0 0 0 0 0 0 0 0 0 0
Wind_Speed
2 2 2 2 2 2 2 2 2 3 2 2 1 2 2 2 2 2 3 6 6 5 4 4 4 3 3 3 3 3 3 3 2 3 3 3 3 4 4 4 5 5 5
2 2 2 2 2 2 2 2 3 3 2 2 2 1 2 2 2 2 2 4 6 6 6 6 5 4 4 3 3 3 2 2 2 2 2 3 3 3 4 4 5 5 6
3 2 2 2 3 3 3 2 3 2 2 2 2 2 1 1 2 2 2 2 3 5 6 6 6 5 5 4 4 4 3 3 2 3 3 3 3 3 4 4 5 5 6
3 2 2 2 2 3 3 3 2 2 2 2 2 1 1 1 2 2 2 2 2 2 4 6 6 5 5 5 4 4 3 3 3 3 3 3 3 3 4 4 5 5 6
3 2 2 2 3 3 3 3 3 2 2 2 2 1 1 1 2 2 2 2 2 2 2 3 4 5 5 5 4 4 3 3 3 3 3 4 4 4 4 5 5 5 6
3 3 2 3 2 3 3 3 4 3 2 2 2 1 1 1 1 2 2 2 1 1 1 1 1 2 4 5 5 5 4 4 3 3 4 4 4 5 5 5 5 5 6
4 3 2 3 2 3 4 4 4 4 3 2 2 2 2 2 1 1 1 1 1 1 0 1 1 1 1 2 4 5 5 5 4 4 4 5 5 5 5 5 5 6 6
3 3 3 3 3 2 4 5 4 3 2 2 2 2 2 3 2 2 2 1 1 1 1 0 0 1 1 1 2 4 5 5 5 5 5 5 5 5 5 5 6 6 6
3 3 3 3 3 3 3 5 5 4 4 3 2 2 2 2 1 3 3 3 2 2 1 1 1 1 1 1 1 1 4 5 6 6 6 6 6 6 6 6 6 7 7
3 3 3 3 3 3 3 4 5 4 5 4 3 2 2 1 2 2 3 3 3 3 2 2 2 2 2 1 1 3 4 5 6 6 6 6 6 6 7 7 7 7 7
3 3 3 3 3 3 3 3 4 5 4 4 3 3 2 2 3 2 3 3 3 3 2 3 3 2 2 2 2 2 4 5 6 7 7 7 7 8 8 8 8 8 8
3 3 3 3 3 3 3 3 4 5 5 5 4 4 3 3 3 3 3 3 3 2 3 3 3 3 2 2 2 3 4 6 7 8 8 8 8 8 9 9 9 9 8
3 4 3 3 3 3 3 3 4 4 5 5 5 4 4 3 3 3 3 3 3 3 3 3 3 3 2 2 2 3 5 5 7 8 9 9 8 8 9 10 10 10 9
3 4 4 3 3 3 3 3 3 3 3 4 5 4 4 3 3 4 3 3 3 3 4 4 3 4 3 3 2 5 5 5 7 9 9 9 9 9 9 10 10 10 10
3 4 4 4 3 3 4 4 3 3 3 4 4 5 4 3 3 4 4 4 4 4 4 4 3 3 3 3 3 4 5 5 8 9 9 9 10 10 10 10 10 10 10
3 4 4 4 4 4 4 4 3 3 4 4 3 5 5 4 4 4 4 4 5 5 5 3 3 3 3 3 4 5 6 7 8 9 9 10 10 10 10 10 10 10 11
4 4 4 4 4 4 4 4 4 4 4 4 4 5 5 5 4 4 4 4 5 5 7 5 4 4 5 6 5 5 5 6 5 8 9 10 10 11 11 11 11 11 11
4 4 4 4 4 4 4 4 4 5 5 5 5 5 5 4 6 5 5 6 5 6 6 7 5 4 6 6 6 6 5 5 5 7 9 10 10 10 10 11 11 11 11
4 4 4 4 4 4 4 4 4 4 5 5 5 6 6 6 6 6 6 6 5 5 6 6 5 4 4 4 5 5 6 5 5 6 8 9 9 10 11 11 11 11 11
4 4 4 4 4 4 5 4 4 4 5 5 5 6 6 7 7 7 6 7 6 6 6 6 5 5 4 4 5 5 5 4 4 4 6 7 8 10 11 11 11 11 12
4 4 4 4 4 4 4 4 4 5 5 5 5 6 6 7 7 7 5 6 6 6 6 6 6 5 5 4 5 4 5 5 5 4 4 4 5 5 6 8 9 10 11
3 4 4 4 4 4 4 5 4 4 5 5 5 6 6 6 7 9 10 9 8 8 7 7 6 7 7 6 5 4 5 5 5 2 4 6 5 6 5 5 7 10 11
4 4 4 5 5 5 5 6 6 5 5 5 6 5 4 5 7 6 8 9 10 11 11 9 8 8 7 6 5 6 6 6 7 4 5 7 5 6 5 6 9 11 12
4 4 4 5 5 4 5 6 6 6 6 6 6 6 5 6 6 6 6 7 7 8 9 9 9 8 7 6 6 7 7 7 7 5 5 6 5 6 6 6 8 11 12
4 4 4 4 4 4 5 5 5 4 5 6 5 5 6 6 5 6 6 7 7 7 7 9 10 9 9 9 7 5 5 5 6 5 4 5 5 6 6 6 6 8 10
4 3 4 4 5 4 4 5 5 4 5 4 4 4 6 6 6 7 6 7 8 7 5 5 7 8 8 8 9 8 6 6 5 5 3 4 4 4 5 4 4 5 6
Wind_Direction
160 152 155 160 156 146 157 152 150 140 133 117 118 139 139 133 121 115 98 63 50 59 67 70 78 69 68 68 66 63 54 51 54 51 43 35 27 18 14 10 9 6 1
162 158 147 162 156 156 151 159 147 148 137 129 122 122 130 131 125 119 108 100 68 55 58 61 64 67 63 63 61 58 55 49 51 36 25 23 20 13 10 8 7 3 357
156 158 148 161 162 162 155 151 142 139 133 135 134 121 99 111 127 120 111 96 100 79 60 55 52 55 53 49 52 53 49 46 38 31 23 18 13 7 359 359 356 353 350
151 154 154 153 164 164 160 151 157 145 140 144 141 132 126 119 120 115 117 106 84 83 80 58 46 44 42 37 39 43 41 40 32 22 15 8 2 357 349 348 345 344 342
155 155 154 145 166 170 164 159 160 155 149 147 133 126 118 126 125 129 119 103 89 72 67 84 63 46 38 32 25 27 30 28 22 9 358 352 348 343 339 337 340 342 343
160 156 152 158 166 173 167 164 156 151 148 147 141 128 125 123 139 128 133 124 104 85 50 35 86 76 52 35 24 15 13 7 359 350 343 337 333 329 325 327 332 336 336
163 160 153 164 173 178 175 168 158 154 146 151 159 151 159 170 168 164 169 157 137 127 71 21 347 331 82 62 33 15 3 352 349 341 335 327 321 320 321 323 326 331 333
171 165 166 171 177 173 177 173 165 164 161 184 204 185 189 187 185 203 205 201 197 190 213 269 311 320 325 317 46 18 2 349 342 337 333 328 321 314 316 319 322 324 330
179 177 178 178 178 180 182 184 180 182 176 180 219 232 216 210 178 194 211 218 219 225 229 232 241 262 283 307 320 25 354 342 332 329 327 326 325 323 321 318 317 320 322
183 185 184 181 180 187 189 196 194 194 190 186 188 233 284 296 218 205 199 213 230 249 255 250 235 236 252 264 320 347 336 324 320 317 317 318 320 321 322 321 319 318 317
181 185 190 188 188 191 194 202 200 199 202 200 193 192 207 227 240 235 236 221 230 235 252 260 248 245 248 260 271 329 321 307 304 305 307 311 315 316 314 314 314 315 314
185 191 197 197 195 192 195 204 206 206 208 208 207 207 210 215 213 223 244 248 254 248 255 250 249 252 253 263 271 312 297 295 297 297 298 303 309 311 309 310 310 307 308
190 197 203 204 201 200 202 204 206 209 211 210 211 215 221 232 231 231 235 246 260 264 248 236 234 243 252 267 266 287 274 286 291 292 292 297 301 303 304 303 304 304 301
196 196 205 210 207 202 203 206 210 212 211 216 220 222 223 225 224 227 234 240 254 249 241 240 230 231 239 257 281 267 270 278 289 292 290 293 297 297 296 296 297 298 298
192 195 202 204 204 205 208 205 214 213 212 215 219 222 228 227 226 227 231 236 246 255 256 237 230 222 243 262 272 270 274 279 283 285 286 288 290 291 290 289 290 291 291
191 196 201 206 205 205 208 213 216 216 218 217 220 224 228 229 229 225 224 234 244 253 259 254 254 259 265 272 271 275 276 279 270 275 281 284 284 284 284 285 285 285 285
194 199 204 207 208 210 209 216 223 217 223 224 220 225 229 229 231 229 226 229 233 241 254 265 264 267 265 267 271 272 276 274 270 268 278 281 281 280 279 279 279 279 280
201 203 206 210 212 216 219 224 226 225 226 229 229 231 233 229 232 231 229 230 232 234 247 263 268 269 268 272 278 279 280 276 275 273 274 276 277 276 278 278 276 276 277
205 205 210 215 217 221 225 230 233 235 235 237 235 235 237 232 235 233 231 232 232 233 238 250 262 268 272 275 282 280 277 276 278 277 273 268 270 276 276 274 274 274 276
206 208 213 218 222 223 226 228 232 240 243 245 245 243 242 239 239 238 236 234 233 233 235 242 253 261 266 273 272 278 281 279 279 280 270 269 272 274 272 272 273 275 275
213 214 216 222 225 226 226 226 231 240 247 250 248 247 245 245 249 247 243 237 230 232 237 241 248 255 257 258 262 273 278 290 285 272 278 276 277 274 270 264 265 269 273
217 220 225 227 229 232 231 236 244 242 245 247 250 249 245 239 240 242 245 247 243 239 239 242 247 250 257 261 267 268 279 285 284 270 287 286 279 274 273 273 277 277 274
221 226 231 232 237 236 228 237 242 247 246 247 246 246 242 239 237 243 240 238 240 242 245 248 251 253 260 258 259 263 264 270 275 289 292 283 280 278 279 275 278 279 276
226 232 236 239 245 243 232 239 241 244 249 251 248 246 246 246 240 243 247 247 249 244 241 241 248 256 260 260 251 260 270 278 280 273 264 276 282 283 287 279 271 273 275
232 236 240 242 246 247 230 235 238 241 245 250 250 247 246 249 248 244 247 251 256 260 249 243 252 257 261 257 254 256 257 261 273 272 250 262 281 291 287 278 270 271 276
233 235 238 242 244 248 232 230 237 240 245 251 252 247 243 249 253 249 251 252 256 262 263 255 248 246 249 246 241 242 244 249 265 274 243 247 273 293 290 273 281 283 278